sat.trackr.live / text

‹ back to catalog

STARLINK-36522

NORAD 67461 · 2026-008S

PAYLOAD ACTIVE UNKNOWN

§ Identity

Operator
Country
US
Launch date
2026-01-14
Launch site
AFETR
Launch vehicle
Mass (kg)
RCS (m²)

Purposes: comms

External: N2YO · Heavens-Above · Gunter

§ Orbital elements

Epoch: 2026-09-19T04:16:08.126976Z

Period
94.27 min
Inclination
43.0008°
Eccentricity
0.0001009
Mean motion
15.27589349 rev/d
Perigee alt
482.3 km
Apogee alt
483.7 km
Semi-major
6,861.2 km
B*
3.9189e-4
RAAN
192.5148°
Arg perigee
261.2622°
Mean anomaly
98.8115°
Rev number
3,916

§ Raw data

STARLINK-365221 67461U 26008S   26262.17787184  .00010540  00000+0  39189-3 0  99932 67461  43.0008 192.5148 0001009 261.2622  98.8115 15.27589349 39166

JSON: /api/v1/satellites/67461 · /tle

For live sub-satellite position, see the globe view (requires WebGL).

§ Visibility from observer

Set your observer location to see the next 7 days of passes ≥ 10°. The values pass through the URL so the page stays shareable.

No JS? Fill the form by hand. The geolocation button needs JavaScript.